Dewpoint
73 74 76 74 75 74 75 73 75 75 75 74 73 74 73 74 74 73 74 73 74 73 72 74 71 69 68 65 65 66 68 66 67 70 73 73 72 75 76 75 76 76 76 74 74 73 73 74 74 73 73 73 73 73 74 73 73 73 73 72 73 73 73 72 72 72 72 72 71 71 71 72 72 72 71 72 71 71 71 71 71 70 71 71 71
73 74 74 74 75 74 74 75 74 74 74 73 74 74 74 74 74 73 71 72 73 72 74 71 68 67 67 65 65 64 66 67 65 68 73 72 72 75 76 76 76 75 76 75 74 74 74 74 73 74 73 73 73 73 73 73 73 73 73 73 73 73 73 73 73 73 72 72 72 72 72 72 72 72 72 72 72 72 72 72 72 72 72 72 72
74 75 74 74 75 75 74 74 74 75 73 73 76 75 74 73 75 73 72 72 71 73 73 70 69 66 68 65 65 68 66 64 63 65 72 73 72 74 76 77 76 76 76 76 75 75 74 74 73 73 73 73 73 73 73 73 73 73 73 73 73 73 73 73 73 73 73 73 73 72 72 72 72 72 72 72 72 72 72 72 72 72 72 72 72
75 75 74 74 75 75 75 75 75 74 75 75 75 76 76 75 75 73 73 72 71 71 71 69 68 67 67 65 65 66 62 62 62 61 70 73 73 74 75 76 76 76 76 76 76 75 75 75 74 73 73 73 73 73 73 73 73 73 73 73 73 73 73 73 73 73 73 73 73 73 73 73 72 72 72 72 72 72 72 72 73 73 73 73 72
75 75 77 74 75 75 74 75 76 76 75 75 75 76 75 73 73 75 74 73 72 72 72 68 67 65 67 66 66 66 64 64 64 61 67 72 73 73 73 75 76 76 76 76 76 76 76 76 75 74 74 74 73 73 74 74 74 73 72 72 73 74 74 73 73 73 73 73 73 73 73 73 73 73 73 73 73 72 72 72 72 72 73 73 73
76 75 75 74 75 74 74 74 75 75 75 76 75 76 73 72 72 73 74 73 71 70 70 66 67 67 67 67 67 67 64 65 63 64 63 65 70 73 73 73 74 75 76 76 76 76 76 76 76 75 75 75 74 75 74 74 74 74 73 73 73 73 73 73 74 73 74 73 74 74 74 74 73 73 73 73 73 73 73 73 73 73 73 73 73
77 76 75 75 74 74 74 74 74 75 75 76 75 74 74 74 74 72 71 72 71 70 69 68 66 67 66 68 66 67 65 64 65 63 65 66 66 70 72 72 72 73 75 76 77 76 77 76 75 75 75 74 74 74 74 74 75 75 74 73 74 73 73 74 74 74 74 74 74 74 74 74 74 74 74 73 73 73 73 73 73 73 73 73 73
77 77 77 75 74 74 74 75 75 76 75 76 75 74 73 72 73 72 70 70 70 68 67 67 69 68 65 67 67 69 64 65 63 63 64 64 66 67 70 71 72 71 74 74 75 76 77 76 74 74 73 74 74 74 74 74 74 75 74 73 73 73 75 75 75 75 74 75 75 74 74 74 74 74 74 74 74 74 74 73 73 74 74 73 73
77 77 76 75 75 74 75 75 76 75 75 76 75 75 72 73 73 74 72 69 70 67 66 65 64 64 66 67 67 67 65 67 66 65 70 65 65 66 68 70 72 75 73 72 73 75 76 77 75 74 74 74 74 74 75 74 74 74 73 73 73 73 74 74 74 75 75 74 74 74 74 74 74 74 74 74 74 75 75 74 74 74 74 74 74
77 77 76 75 74 74 74 75 75 74 74 74 73 73 73 71 70 72 71 69 68 65 64 64 65 65 62 63 65 65 66 66 66 73 67 66 65 65 67 69 69 71 72 73 74 74 75 76 75 75 74 74 74 74 74 74 74 73 73 73 73 74 74 74 75 75 74 74 74 74 75 75 75 75 75 75 74 74 75 75 75 74 74 74 74
76 77 76 76 75 74 74 75 75 74 73 73 72 72 72 72 71 70 73 68 66 65 65 65 65 64 63 65 67 67 67 66 68 65 65 64 61 67 66 67 68 70 71 72 73 73 73 74 73 73 74 74 75 75 74 74 74 73 73 73 74 74 74 74 74 74 74 74 75 75 75 75 75 75 74 74 74 74 75 75 75 74 74 74 74
76 76 76 76 75 73 74 75 75 73 72 71 71 71 70 71 70 66 65 67 68 66 67 66 67 66 68 67 68 67 65 69 66 65 67 64 60 62 61 64 66 69 70 71 72 73 73 73 73 72 73 74 74 74 74 74 74 74 74 74 73 73 74 74 74 74 74 74 74 75 75 75 75 75 75 74 74 74 74 74 74 74 74 74 75
76 76 76 77 76 75 74 74 73 72 72 71 72 71 71 72 70 70 66 66 66 68 66 68 64 64 68 67 66 67 71 68 65 65 64 62 60 57 58 58 61 65 69 71 72 73 73 72 72 73 73 73 73 73 73 73 73 73 74 73 73 73 73 73 73 73 73 73 74 75 75 75 75 75 75 75 75 74 75 74 74 74 74 74 73
76 76 76 76 76 75 74 73 72 72 72 73 72 74 69 68 68 66 68 66 66 66 66 64 64 61 63 65 67 65 70 67 65 63 62 59 56 56 57 57 58 59 65 69 71 72 72 72 72 72 73 72 72 72 72 73 73 73 72 73 72 72 73 73 73 73 73 74 73 73 73 74 74 74 74 74 74 74 74 74 74 74 74 74 74
76 76 76 76 76 75 75 73 72 72 72 72 71 69 68 68 67 66 66 68 69 70 67 65 62 63 66 63 60 60 64 64 67 66 55 56 56 55 57 56 58 59 61 65 65 66 67 70 71 72 73 72 72 72 72 73 72 72 71 71 71 72 72 72 72 72 72 73 73 73 73 73 73 74 74 73 73 73 74 74 74 74 74 74 74
76 76 76 76 75 74 74 73 72 73 71 71 70 68 68 67 68 69 68 65 65 66 69 67 64 64 59 61 61 61 58 61 63 66 61 55 54 56 57 57 60 63 59 61 63 64 64 65 65 69 72 72 72 72 71 71 71 70 69 69 69 69 70 71 71 71 71 71 72 72 72 73 74 74 73 73 73 73 72 73 73 73 73 73 74
76 76 76 75 74 74 73 73 73 72 72 70 69 69 68 67 68 67 67 66 65 67 68 67 67 66 64 62 60 59 59 60 61 64 64 58 54 55 60 55 58 62 59 61 63 62 63 63 64 66 68 72 72 71 71 71 70 70 68 67 66 67 67 69 70 70 69 69 70 70 71 72 72 73 73 73 73 73 73 73 72 72 72 72 73
75 75 74 74 74 74 74 73 73 72 71 69 69 68 67 67 68 67 67 67 67 66 66 68 66 68 66 64 62 60 62 63 61 57 66 63 61 59 60 55 58 62 60 59 61 61 65 63 62 62 63 68 71 70 70 69 71 67 66 66 66 64 65 66 67 67 67 67 67 68 69 69 70 71 71 72 73 73 73 72 72 72 72 72 72
76 75 74 73 73 74 74 73 72 71 71 71 69 69 67 68 69 70 69 69 67 66 64 64 64 65 65 65 67 67 67 62 58 60 56 61 66 60 56 56 58 60 61 59 61 58 60 63 60 60 61 63 66 68 69 69 70 69 68 66 65 64 64 65 66 66 65 65 65 66 66 67 68 68 69 69 70 70 71 71 72 73 72 72 72
75 73 73 72 74 74 73 72 71 69 71 66 67 68 68 69 70 68 68 71 69 65 63 65 64 65 70 66 67 68 65 63 65 60 60 56 58 62 57 57 59 59 60 58 59 59 62 62 58 62 62 60 62 65 65 65 66 67 67 68 65 65 63 64 65 65 64 64 64 65 66 65 66 66 66 67 67 68 68 69 71 72 72 72 72
75 74 73 73 74 73 72 71 70 69 71 68 69 68 68 68 67 67 68 69 69 68 67 64 64 64 65 64 65 64 64 64 64 63 60 58 58 57 60 62 60 61 60 57 57 61 61 60 61 62 65 61 63 61 63 64 63 64 68 66 67 65 65 64 63 64 64 63 63 63 64 64 64 65 65 66 66 67 67 67 67 67 68 69 70
74 74 74 73 73 72 72 71 69 68 70 67 67 69 68 68 68 68 68 67 68 66 64 65 67 66 66 65 66 64 64 64 60 61 61 58 55 56 57 57 57 56 63 58 59 62 60 60 63 60 61 63 61 59 64 62 64 65 66 67 67 66 66 64 64 63 63 64 63 63 63 64 64 64 64 64 65 65 65 65 65 65 66 66 67
74 73 73 72 72 72 70 70 68 69 69 67 67 68 68 67 67 68 68 68 65 66 67 69 67 67 66 66 65 63 62 62 60 61 62 59 59 59 58 57 54 57 62 59 62 61 61 60 62 61 61 61 61 63 63 63 67 66 67 68 68 67 66 66 65 63 63 64 63 63 63 64 64 64 64 65 64 65 64 64 65 65 65 65 65
73 72 72 72 72 71 71 71 69 67 67 70 68 65 66 66 67 68 67 65 65 66 64 59 66 64 65 65 65 65 65 65 63 61 59 59 59 58 57 59 61 61 64 64 64 62 62 62 62 61 62 59 58 60 66 65 65 68 68 69 68 68 68 67 67 66 65 65 65 63 62 63 63 64 64 65 65 64 64 64 64 64 64 65 65
72 72 72 71 72 70 70 70 67 64 65 66 69 66 65 66 66 65 65 66 66 66 66 66 63 64 63 64 63 65 64 65 64 63 64 64 62 58 60 59 58 59 63 61 60 64 64 61 62 62 61 62 61 64 63 61 63 68 69 69 67 68 67 67 67 67 66 66 66 66 65 64 64 64 64 64 64 63 64 64 64 63 64 63 64
72 71 71 71 71 71 71 66 66 66 65 65 68 66 66 66 65 65 65 64 66 64 64 64 64 65 65 61 62 65 64 64 62 63 61 60 59 57 60 61 59 59 61 61 65 60 62 64 62 63 61 64 61 63 61 61 62 70 71 65 67 67 66 66 67 66 66 66 65 67 66 65 64 65 65 65 65 64 64 64 64 64 64 63 63
72 71 72 71 70 71 69 64 65 67 66 66 67 65 67 67 66 65 66 64 64 65 64 64 64 62 64 66 65 62 64 65 64 64 62 62 63 62 61 58 59 60 59 61 61 60 59 61 64 62 62 64 64 63 61 62 63 66 73 67 63 66 67 67 67 67 66 66 65 65 65 67 66 65 65 65 65 65 64 64 64 64 64 64 64
72 71 71 71 70 71 68 65 65 66 67 67 66 64 65 66 66 65 66 65 64 66 64 63 63 64 65 67 64 63 64 64 65 64 63 64 64 64 62 59 56 55 58 58 59 59 61 58 61 64 64 64 65 64 65 64 64 71 69 67 64 65 67 67 67 67 67 66 66 65 64 64 65 64 66 66 65 65 64 64 63 64 65 64 65
71 72 71 70 70 70 67 66 66 66 67 67 66 65 64 65 66 65 65 64 64 64 65 64 64 65 64 64 63 65 65 66 65 66 67 67 64 64 64 62 60 57 56 56 57 58 60 61 58 62 66 65 65 65 66 63 64 67 67 66 64 64 66 67 67 67 67 67 66 65 65 64 64 64 65 66 66 66 66 65 65 65 64 65 65
71 72 70 70 69 70 66 67 67 66 66 67 66 65 65 64 65 66 65 65 66 65 66 64 64 65 66 66 66 65 65 65 64 64 63 65 65 65 65 64 63 60 59 56 57 59 59 61 59 58 65 64 66 65 65 63 66 66 64 63 63 63 66 66 66 66 67 67 66 65 65 65 64 64 64 65 67 67 67 67 66 65 66 66 66
72 70 70 70 68 68 66 67 67 66 66 66 66 66 64 64 65 64 65 65 66 65 65 66 65 65 65 64 65 65 67 66 65 65 65 65 65 66 65 64 63 62 61 59 56 60 62 60 62 63 61 64 66 63 65 65 66 66 64 63 63 65 67 66 65 65 65 66 66 66 65 64 64 64 64 64 65 65 66 66 65 65 66 66 66
71 70 70 69 68 67 66 66 66 66 66 66 65 66 65 64 65 64 64 64 65 65 65 66 66 65 65 64 65 65 65 64 64 65 66 66 66 66 66 64 63 63 63 61 59 59 62 62 62 63 64 63 63 62 61 65 66 69 65 64 64 67 65 64 66 66 65 65 65 65 65 64 64 64 64 64 64 65 65 65 65 65 65 65 65
70 69 69 68 68 67 66 67 66 66 66 66 65 65 66 64 64 65 64 64 64 65 66 65 65 65 64 63 63 64 66 64 64 65 65 65 66 65 65 65 64 64 63 61 59 60 61 64 63 63 64 64 62 62 61 61 63 64 67 65 65 64 64 63 63 64 64 64 64 64 64 64 64 64 64 64 65 65 65 65 65 65 64 64 64
70 69 69 69 68 67 66 67 66 66 66 66 65 64 66 65 64 65 64 64 64 64 64 63 64 64 65 64 64 65 66 64 63 64 64 65 64 63 64 63 63 63 63 61 61 60 60 61 62 64 64 65 63 63 62 62 62 63 63 63 65 65 64 64 63 64 64 65 64 64 64 63 63 63 64 64 64 64 64 64 64 63 64 64 63
70 70 69 69 68 67 66 67 66 66 66 66 65 64 64 65 64 64 65 64 64 63 63 62 63 63 63 64 63 64 66 64 65 64 64 64 64 63 63 65 64 63 65 63 62 60 60 60 62 62 62 62 62 61 62 63 64 64 63 63 63 64 65 64 63 63 64 64 64 64 63 63 63 63 63 63 63 63 63 63 63 63 63 62 62
70 70 69 69 68 68 66 66 66 66 66 66 65 64 64 64 64 64 64 64 65 64 63 63 63 63 63 63 64 64 64 63 64 63 63 63 63 63 62 64 64 64 63 63 62 60 61 60 61 61 62 61 61 63 64 64 63 63 63 62 63 63 63 65 64 63 64 64 63 63 63 63 62 62 62 62 62 61 61 61 61 61 61 61 61
70 70 70 69 69 68 67 66 66 66 66 65 66 65 64 64 64 63 63 63 64 65 64 64 66 64 64 63 63 64 64 61 63 63 63 63 63 63 61 62 62 64 64 63 63 63 62 61 61 62 62 62 62 63 63 63 63 62 63 63 63 63 63 63 64 64 64 64 64 64 63 62 62 62 62 61 61 61 60 60 60 59 59 59 58
69 70 70 70 69 68 68 67 67 66 66 65 65 65 65 64 64 63 63 63 63 64 64 64 64 64 64 64 64 64 63 61 62 62 62 61 62 63 63 64 65 65 64 64 64 63 62 61 61 61 61 62 62 62 63 63 63 62 62 62 63 63 63 62 62 63 64 63 63 63 63 63 63 62 62 61 61 60 60 60 60 59 58 57 56
69 69 70 70 70 69 68 68 67 66 66 66 65 65 65 65 65 64 63 63 64 64 64 64 63 64 64 64 64 64 63 62 61 61 62 62 63 62 61 66 65 64 63 63 63 63 62 61 61 62 61 62 62 61 63 64 64 63 62 61 61 62 62 62 61 62 63 63 63 63 62 61 62 61 60 60 60 60 60 59 59 58 58 57 56
69 69 69 70 70 70 69 68 68 67 67 66 65 65 65 65 65 65 64 64 64 64 65 65 65 64 65 65 64 64 63 63 62 62 62 61 62 62 64 65 65 65 64 64 64 64 63 62 62 61 61 62 62 62 63 62 61 61 62 62 60 60 60 61 61 61 62 62 62 62 62 62 62 62 61 61 61 60 59 59 60 61 60 58 57
69 68 69 70 70 70 69 69 68 67 67 66 66 65 64 65 65 65 64 64 64 64 64 64 64 64 64 64 64 64 64 67 69 67 65 65 63 62 65 65 64 62 61 60 60 60 61 61 60 60 60 60 60 60 59 59 59 59 60 60 60 60 60 61 61 62 62 61 60 60 60 60 60 60 59 59 59 61 61 62 62 63 61 59 58
69 68 69 70 70 70 70 69 68 68 67 67 65 61 63 65 65 65 64 64 63 63 64 64 64 64 64 64 65 68 68 70 70 70 67 66 66 64 64 63 63 62 61 60 60 60 60 59 59 59 59 59 59 59 59 59 59 59 59 58 57 58 59 59 59 60 61 60 60 59 60 61 61 60 60 60 61 62 61 60 60 60 60 60 60
69 69 69 70 70 70 70 69 68 68 67 67 62 61 62 63 64 63 63 63 63 64 64 64 64 64 64 64 64 67 70 69 68 68 67 65 65 65 65 65 64 62 61 61 60 59 59 59 59 59 59 59 58 59 58 58 59 58 59 58 59 59 58 57 57 58 61 61 59 57 56 58 59 58 59 59 59 59 58 58 59 60 59 59 59
70 70 69 70 70 70 70 69 68 67 67 64 60 61 61 61 63 63 63 63 63 64 65 65 64 64 64 64 65 66 66 65 65 67 67 65 63 63 63 63 64 63 63 62 60 59 60 60 59 59 59 59 58 58 58 58 58 59 59 59 59 59 58 57 56 55 57 58 56 56 55 56 58 57 57 57 57 58 58 59 59 59 58 58 58
71 70 70 71 71 70 70 69 68 67 66 62 60 60 61 60 61 63 63 64 64 64 65 65 65 64 64 63 64 65 66 68 67 65 65 65 64 63 63 64 64 63 61 61 61 62 60 60 60 59 59 59 58 58 59 60 61 59 59 59 59 58 58 57 56 55 55 57 56 55 54 55 56 57 57 58 58 58 58 58 58 58 58 57 57
71 71 71 71 71 70 70 69 68 68 67 60 59 59 59 59 60 62 64 65 66 66 65 65 65 65 65 63 64 65 66 67 66 64 64 64 63 63 64 64 64 65 63 61 60 60 61 61 61 60 61 61 60 60 62 61 59 59 59 58 57 55 55 54 54 55 55 57 56 55 55 55 56 56 56 56 57 57 57 57 58 58 57 57 56
71 71 71 71 71 70 70 70 69 68 67 58 58 58 58 58 59 62 64 66 67 66 66 65 66 66 65 65 65 66 66 65 65 65 65 65 65 65 64 64 65 65 64 64 64 63 63 62 61 61 62 62 61 62 62 63 62 62 59 57 55 54 54 55 56 56 57 58 57 56 55 55 56 56 56 56 57 57 56 56 57 56 55 54 54
72 71 71 70 70 69 69 68 67 66 63 57 57 57 57 57 58 62 63 66 67 66 66 66 66 66 65 66 65 65 67 66 66 64 66 65 63 62 62 63 63 64 65 65 63 64 65 64 63 62 62 62 61 63 61 58 57 57 57 57 57 56 55 54 54 54 55 55 57 56 54 54 55 54 54 53 53 51 52 51 53 53 53 52 53
71 70 70 69 69 68 66 66 65 64 62 57 56 55 55 56 57 61 61 63 66 66 67 67 67 66 65 64 65 66 66 66 65 62 63 67 63 62 62 62 62 62 62 63 60 59 59 57 57 57 57 57 56 55 54 54 55 55 54 54 53 54 53 52 52 52 53 55 55 56 54 52 53 51 50 50 50 49 47 47 47 51 52 52 53
70 70 69 69 68 66 65 65 64 64 62 57 54 54 54 55 57 60 61 62 64 65 67 66 66 65 66 69 68 66 66 66 62 60 62 65 62 62 62 62 62 61 61 61 61 61 59 59 60 59 58 58 57 56 56 55 54 55 54 53 52 52 52 52 51 52 52 54 55 54 46 46 48 49 47 46 49 47 48 47 48 49 52 52 53
70 69 68 68 67 66 65 65 64 64 64 57 53 53 53 54 57 60 61 62 64 65 66 66 66 66 65 68 69 68 66 64 59 59 59 64 62 62 62 62 61 60 58 57 58 58 58 57 56 57 56 56 57 57 59 58 57 58 57 55 54 54 53 53 53 54 54 54 55 49 44 45 45 47 47 46 45 46 48 49 50 51 52 54 55